Flag for Canada Weather past 2 weeks in Yarmouth County, Nova Scotia, Canada

Now
36 °F

Overcast.


Feels Like: 31 °F
Forecast: N/A
Wind: 6 mph from Northeast

Location: Yarmouth

Current Time: Dec 21, 2014 at 5:17:07 PM

Latest Report: Dec 21, 2014 at 4:00 PM


Visibility: 15 mi

Pressure: 30.32 "Hg

Humidity: 81%

Dew point: 30 °F

Location of Yarmouth CountyLocation

Historic Weather in Yarmouth County — Graph

°F

Yarmouth County temperature yesterday

Maximum temperature yesterday: 34 °F (at 2:00 PM)
Minimum temperature yesterday: 28 °F (at 8:00 AM)
Average temperature yesterday: 32 °F

Past Weeks' High & Low Weather Summary

 TemperatureHumidityPressure
High59 °F (Dec 10, 1:00 PM)100% (Dec 6, 4:00 PM)30.78 "Hg (Dec 6, 4:00 PM)
Low14 °F (Dec 8, 2:00 AM)46% (Dec 8, 2:00 PM)29.39 "Hg (Dec 18, 4:00 AM)
Average37 °F90%29.96 "Hg
* Reported Dec 6 4:00 PM — Dec 21 4:00 PM, Yarmouth County, Weather by CustomWeather, © 2014

Note: Actual official high and low records may vary slightly from our data, if they occured in-between our weather recording intervals... More about our weather records

Advertising

Yarmouth County weather history for previous 24 hours

 ConditionsComfort  
Time TempWeatherWind HumidityBarometerVisibility
4:00 PM
Dec 21
36 °FOvercast.6 mph81%30.32 "Hg15 mi
3:00 PM37 °FOvercast.7 mph70%30.31 "Hg15 mi
2:00 PM37 °FPartly sunny.7 mph70%30.30 "Hg15 mi
1:00 PM37 °FPartly sunny.6 mph75%30.31 "Hg15 mi
12:00 PM36 °FPartly sunny.8 mph75%30.33 "Hg15 mi
11:00 AM34 °FPartly sunny.10 mph81%30.34 "Hg15 mi
10:00 AM32 °FOvercast.8 mph87%30.34 "Hg15 mi
9:00 AM32 °FOvercast.8 mph87%30.33 "Hg15 mi
8:00 AM32 °FOvercast.7 mph87%30.32 "Hg15 mi
7:00 AM32 °FOvercast.8 mph87%30.31 "Hg15 mi
6:00 AM32 °FOvercast.6 mph87%30.30 "Hg15 mi
5:00 AM32 °FOvercast.7 mph87%30.31 "Hg15 mi
4:00 AM32 °FOvercast.7 mph87%30.31 "Hg15 mi
3:00 AM32 °FOvercast.9 mph87%30.31 "Hg15 mi
2:00 AM32 °FOvercast.9 mph87%30.29 "Hg15 mi
1:00 AM32 °FOvercast.8 mph93%30.30 "Hg15 mi
12:00 AM32 °FOvercast.7 mph93%30.31 "Hg15 mi
11:00 PM
Dec 20
32 °FOvercast.6 mph93%30.31 "Hg15 mi
10:00 PM32 °FOvercast.5 mph87%30.31 "Hg15 mi
9:00 PM32 °FOvercast.5 mph93%30.31 "Hg15 mi
8:00 PM32 °FOvercast.7 mph93%30.30 "Hg15 mi
7:00 PM32 °FOvercast.3 mph93%30.30 "Hg15 mi
6:00 PM32 °FOvercast.6 mph87%30.28 "Hg15 mi
5:00 PM34 °FOvercast.6 mph81%30.26 "Hg15 mi
Weather by CustomWeather, © 2014

See weather overviewHow to use our weather pages